Year,Month,Day,Hour,Minute,Value (Times are PST for barometer in hPa)
2012,01,22,00,00,1007.99
2012,01,22,00,01,1007.99
2012,01,22,00,02,1007.99
2012,01,22,00,03,1007.99
2012,01,22,00,04,1007.99
2012,01,22,00,05,1007.96
2012,01,22,00,06,1007.96
2012,01,22,00,07,1007.96
2012,01,22,00,08,1007.96
2012,01,22,00,09,1007.96
2012,01,22,00,10,1007.96
2012,01,22,00,11,1007.93
2012,01,22,00,12,1007.89
2012,01,22,00,13,1007.93
2012,01,22,00,14,1007.93
2012,01,22,00,15,1007.93
2012,01,22,00,16,1007.93
2012,01,22,00,17,1007.93
2012,01,22,00,18,1007.96
2012,01,22,00,19,1007.99
2012,01,22,00,20,1007.99
2012,01,22,00,21,1007.96
2012,01,22,00,22,1007.96
2012,01,22,00,23,1007.89
2012,01,22,00,24,1007.89
2012,01,22,00,25,1007.86
2012,01,22,00,26,1007.86
2012,01,22,00,27,1007.79
2012,01,22,00,28,1007.79
2012,01,22,00,29,1007.79
2012,01,22,00,30,1007.76
2012,01,22,00,31,1007.76
2012,01,22,00,32,1007.72
2012,01,22,00,33,1007.76
2012,01,22,00,34,1007.72
2012,01,22,00,35,1007.69
2012,01,22,00,36,1007.65
2012,01,22,00,37,1007.72
2012,01,22,00,38,1007.69
2012,01,22,00,39,1007.69
2012,01,22,00,40,1007.69
2012,01,22,00,41,1007.65
2012,01,22,00,42,1007.65
2012,01,22,00,43,1007.65
2012,01,22,00,44,1007.65
2012,01,22,00,45,1007.62
2012,01,22,00,46,1007.69
2012,01,22,00,47,1007.59
2012,01,22,00,48,1007.59
2012,01,22,00,49,1007.52
2012,01,22,00,50,1007.52
2012,01,22,00,51,1007.52
2012,01,22,00,52,1007.48
2012,01,22,00,53,1007.48
2012,01,22,00,54,1007.38
2012,01,22,00,55,1007.42
2012,01,22,00,56,1007.38
2012,01,22,00,57,1007.32
2012,01,22,00,58,1007.32
2012,01,22,00,59,1007.31
2012,01,22,01,00,1007.18
2012,01,22,01,01,1007.18
2012,01,22,01,02,1007.15
2012,01,22,01,03,1007.15
2012,01,22,01,04,1007.08
2012,01,22,01,05,1007.04
2012,01,22,01,06,1007.04
2012,01,22,01,07,1007.01
2012,01,22,01,08,1007.01
2012,01,22,01,09,1006.94
2012,01,22,01,10,1006.94
2012,01,22,01,11,1006.91
2012,01,22,01,12,1006.84
2012,01,22,01,13,1006.84
2012,01,22,01,14,1006.84
2012,01,22,01,15,1006.84
2012,01,22,01,16,1006.81
2012,01,22,01,17,1006.81
2012,01,22,01,18,1006.74
2012,01,22,01,19,1006.74
2012,01,22,01,20,1006.74
2012,01,22,01,21,1006.95
2012,01,22,01,22,1007.08
2012,01,22,01,23,1007.11
2012,01,22,01,24,1007.07
2012,01,22,01,25,1006.94
2012,01,22,01,26,1006.98
2012,01,22,01,27,1006.98
2012,01,22,01,28,1006.88
2012,01,22,01,29,1006.77
2012,01,22,01,30,1006.74
2012,01,22,01,31,1006.64
2012,01,22,01,32,1006.64
2012,01,22,01,33,1006.64
2012,01,22,01,34,1006.71
2012,01,22,01,35,1006.67
2012,01,22,01,36,1006.67
2012,01,22,01,37,1006.67
2012,01,22,01,38,1006.60
2012,01,22,01,39,1006.57
2012,01,22,01,40,1006.60
2012,01,22,01,41,1006.54
2012,01,22,01,42,1006.50
2012,01,22,01,43,1006.40
2012,01,22,01,44,1006.40
2012,01,22,01,45,1006.37
2012,01,22,01,46,1006.37
2012,01,22,01,47,1006.37
2012,01,22,01,48,1006.33
2012,01,22,01,49,1006.30
2012,01,22,01,50,1006.37
2012,01,22,01,51,1006.33
2012,01,22,01,52,1006.27
2012,01,22,01,53,1006.27
2012,01,22,01,54,1006.20
2012,01,22,01,55,1006.16
2012,01,22,01,56,1006.13
2012,01,22,01,57,1006.12
2012,01,22,01,58,1005.99
2012,01,22,01,59,1005.99
2012,01,22,02,00,1005.96
2012,01,22,02,01,1005.93
2012,01,22,02,02,1005.96
2012,01,22,02,03,1005.96
2012,01,22,02,04,1005.99
2012,01,22,02,05,1006.06
2012,01,22,02,06,1006.10
2012,01,22,02,07,1006.10
2012,01,22,02,08,1006.10
2012,01,22,02,09,1006.10
2012,01,22,02,10,1006.13
2012,01,22,02,11,1006.13
2012,01,22,02,12,1006.10
2012,01,22,02,13,1006.10
2012,01,22,02,14,1006.03
2012,01,22,02,15,1006.03
2012,01,22,02,16,1006.03
2012,01,22,02,17,1005.99
2012,01,22,02,18,1005.99
2012,01,22,02,19,1006.06
2012,01,22,02,20,1006.06
2012,01,22,02,21,1005.96
2012,01,22,02,22,1005.96
2012,01,22,02,23,1005.96
2012,01,22,02,24,1005.93
2012,01,22,02,25,1005.89
2012,01,22,02,26,1005.86
2012,01,22,02,27,1005.93
2012,01,22,02,28,1005.83
2012,01,22,02,29,1005.83
2012,01,22,02,30,1005.76
2012,01,22,02,31,1005.76
2012,01,22,02,32,1005.76
2012,01,22,02,33,1005.72
2012,01,22,02,34,1005.76
2012,01,22,02,35,1005.69
2012,01,22,02,36,1005.76
2012,01,22,02,37,1005.76
2012,01,22,02,38,1005.72
2012,01,22,02,39,1005.72
2012,01,22,02,40,1005.72
2012,01,22,02,41,1005.76
2012,01,22,02,42,1005.72
2012,01,22,02,43,1005.69
2012,01,22,02,44,1005.65
2012,01,22,02,45,1005.55
2012,01,22,02,46,1005.62
2012,01,22,02,47,1005.62
2012,01,22,02,48,1005.52
2012,01,22,02,49,1005.49
2012,01,22,02,50,1005.45
2012,01,22,02,51,1005.52
2012,01,22,02,52,1005.45
2012,01,22,02,53,1005.42
2012,01,22,02,54,1005.42
2012,01,22,02,55,1005.42
2012,01,22,02,56,1005.42
2012,01,22,02,57,1005.45
2012,01,22,02,58,1005.35
2012,01,22,02,59,1005.49
2012,01,22,03,00,1005.49
2012,01,22,03,01,1005.49
2012,01,22,03,02,1005.55
2012,01,22,03,03,1005.59
2012,01,22,03,04,1005.39
2012,01,22,03,05,1005.44
2012,01,22,03,06,1005.33
2012,01,22,03,07,1005.35
2012,01,22,03,08,1005.26
2012,01,22,03,09,1005.25
2012,01,22,03,10,1005.19
2012,01,22,03,11,1005.15
2012,01,22,03,12,1005.15
2012,01,22,03,13,1005.02
2012,01,22,03,14,1005.01
2012,01,22,03,15,1004.96
2012,01,22,03,16,1004.95
2012,01,22,03,17,1004.91
2012,01,22,03,18,1004.88
2012,01,22,03,19,1004.91
2012,01,22,03,20,1004.88
2012,01,22,03,21,1004.81
2012,01,22,03,22,1004.78
2012,01,22,03,23,1004.78
2012,01,22,03,24,1004.74
2012,01,22,03,25,1004.74
2012,01,22,03,26,1004.65
2012,01,22,03,27,1004.61
2012,01,22,03,28,1004.66
2012,01,22,03,29,1004.62
2012,01,22,03,30,1004.54
2012,01,22,03,31,1004.57
2012,01,22,03,32,1004.48
2012,01,22,03,33,1004.44
2012,01,22,03,34,1004.34
2012,01,22,03,35,1004.30
2012,01,22,03,36,1004.23
2012,01,22,03,37,1004.20
2012,01,22,03,38,1004.17
2012,01,22,03,39,1004.17
2012,01,22,03,40,1004.07
2012,01,22,03,41,1004.01
2012,01,22,03,42,1003.96
2012,01,22,03,43,1004.05
2012,01,22,03,44,1004.01
2012,01,22,03,45,1004.03
2012,01,22,03,46,1004.00
2012,01,22,03,47,1004.00
2012,01,22,03,48,1004.00
2012,01,22,03,49,1003.90
2012,01,22,03,50,1003.86
2012,01,22,03,51,1003.86
2012,01,22,03,52,1003.80
2012,01,22,03,53,1003.79
2012,01,22,03,54,1003.79
2012,01,22,03,55,1003.70
2012,01,22,03,56,1003.69
2012,01,22,03,57,1003.62
2012,01,22,03,58,1003.62
2012,01,22,03,59,1003.62
2012,01,22,04,00,1003.56
2012,01,22,04,01,1003.52
2012,01,22,04,02,1003.56
2012,01,22,04,03,1003.52
2012,01,22,04,04,1003.49
2012,01,22,04,05,1003.40
2012,01,22,04,06,1003.39
2012,01,22,04,07,1003.29
2012,01,22,04,08,1003.25
2012,01,22,04,09,1003.25
2012,01,22,04,10,1003.29
2012,01,22,04,11,1003.32
2012,01,22,04,12,1003.35
2012,01,22,04,13,1003.35
2012,01,22,04,14,1003.39
2012,01,22,04,15,1003.35
2012,01,22,04,16,1003.26
2012,01,22,04,17,1003.34
2012,01,22,04,18,1003.39
2012,01,22,04,19,1003.33
2012,01,22,04,20,1003.29
2012,01,22,04,21,1003.19
2012,01,22,04,22,1003.18
2012,01,22,04,23,1003.15
2012,01,22,04,24,1003.08
2012,01,22,04,25,1003.05
2012,01,22,04,26,1003.01
2012,01,22,04,27,1003.01
2012,01,22,04,28,1002.92
2012,01,22,04,29,1002.79
2012,01,22,04,30,1002.90
2012,01,22,04,31,1002.91
2012,01,22,04,32,1002.86
2012,01,22,04,33,1002.91
2012,01,22,04,34,1002.86
2012,01,22,04,35,1002.75
2012,01,22,04,36,1002.74
2012,01,22,04,37,1002.78
2012,01,22,04,38,1002.78
2012,01,22,04,39,1002.74
2012,01,22,04,40,1002.74
2012,01,22,04,41,1002.74
2012,01,22,04,42,1002.74
2012,01,22,04,43,1002.74
2012,01,22,04,44,1002.71
2012,01,22,04,45,1002.64
2012,01,22,04,46,1002.68
2012,01,22,04,47,1002.61
2012,01,22,04,48,1002.68
2012,01,22,04,49,1002.64
2012,01,22,04,50,1002.55
2012,01,22,04,51,1002.51
2012,01,22,04,52,1002.51
2012,01,22,04,53,1002.45
2012,01,22,04,54,1002.44
2012,01,22,04,55,1002.41
2012,01,22,04,56,1002.37
2012,01,22,04,57,1002.34
2012,01,22,04,58,1002.27
2012,01,22,04,59,1002.30
2012,01,22,05,00,1002.37
2012,01,22,05,01,1002.31
2012,01,22,05,02,1002.25
2012,01,22,05,03,1002.17
2012,01,22,05,04,1002.20
2012,01,22,05,05,1002.11
2012,01,22,05,06,1002.03
2012,01,22,05,07,1002.03
2012,01,22,05,08,1001.98
2012,01,22,05,09,1001.90
2012,01,22,05,10,1001.99
2012,01,22,05,11,1001.91
2012,01,22,05,12,1001.86
2012,01,22,05,13,1001.77
2012,01,22,05,14,1001.76
2012,01,22,05,15,1001.69
2012,01,22,05,16,1001.66
2012,01,22,05,17,1001.66
2012,01,22,05,18,1001.59
2012,01,22,05,19,1001.63
2012,01,22,05,20,1001.57
2012,01,22,05,21,1001.52
2012,01,22,05,22,1001.43
2012,01,22,05,23,1001.46
2012,01,22,05,24,1001.42
2012,01,22,05,25,1001.33
2012,01,22,05,26,1001.32
2012,01,22,05,27,1001.22
2012,01,22,05,28,1001.25
2012,01,22,05,29,1001.22
2012,01,22,05,30,1001.16
2012,01,22,05,31,1001.15
2012,01,22,05,32,1001.06
2012,01,22,05,33,1001.12
2012,01,22,05,34,1001.02
2012,01,22,05,35,1001.02
2012,01,22,05,36,1001.02
2012,01,22,05,37,1000.86
2012,01,22,05,38,1000.88
2012,01,22,05,39,1000.88
2012,01,22,05,40,1000.85
2012,01,22,05,41,1000.76
2012,01,22,05,42,1000.75
2012,01,22,05,43,1000.78
2012,01,22,05,44,1000.69
2012,01,22,05,45,1000.64
2012,01,22,05,46,1000.59
2012,01,22,05,47,1000.58
2012,01,22,05,48,1000.54
2012,01,22,05,49,1000.49
2012,01,22,05,50,1000.42
2012,01,22,05,51,1000.41
2012,01,22,05,52,1000.41
2012,01,22,05,53,1000.35
2012,01,22,05,54,1000.27
2012,01,22,05,55,1000.33
2012,01,22,05,56,1000.31
2012,01,22,05,57,1000.31
2012,01,22,05,58,1000.21
2012,01,22,05,59,1000.10
2012,01,22,06,00,1000.14
2012,01,22,06,01,1000.14
2012,01,22,06,02,1000.10
2012,01,22,06,03,1000.10
2012,01,22,06,04,1000.10
2012,01,22,06,05,1000.04
2012,01,22,06,06,1000.03
2012,01,22,06,07,999.98
2012,01,22,06,08,999.93
2012,01,22,06,09,999.93
2012,01,22,06,10,999.81
2012,01,22,06,11,999.80
2012,01,22,06,12,999.76
2012,01,22,06,13,999.64
2012,01,22,06,14,999.66
2012,01,22,06,15,999.63
2012,01,22,06,16,999.59
2012,01,22,06,17,999.70
2012,01,22,06,18,999.59
2012,01,22,06,19,999.56
2012,01,22,06,20,999.49
2012,01,22,06,21,999.40
2012,01,22,06,22,999.46
2012,01,22,06,23,999.49
2012,01,22,06,24,999.49
2012,01,22,06,25,999.49
2012,01,22,06,26,999.46
2012,01,22,06,27,999.40
2012,01,22,06,28,999.39
2012,01,22,06,29,999.48
2012,01,22,06,30,999.37
2012,01,22,06,31,999.29
2012,01,22,06,32,999.36
2012,01,22,06,33,999.27
2012,01,22,06,34,999.19
2012,01,22,06,35,999.12
2012,01,22,06,36,999.22
2012,01,22,06,37,999.16
2012,01,22,06,38,999.12
2012,01,22,06,39,999.12
2012,01,22,06,40,999.06
2012,01,22,06,41,999.02
2012,01,22,06,42,998.99
2012,01,22,06,43,999.02
2012,01,22,06,44,998.89
2012,01,22,06,45,998.78
2012,01,22,06,46,998.82
2012,01,22,06,47,998.91
2012,01,22,06,48,998.88
2012,01,22,06,49,998.79
2012,01,22,06,50,998.78
2012,01,22,06,51,998.68
2012,01,22,06,52,998.74
2012,01,22,06,53,998.69
2012,01,22,06,54,998.59
2012,01,22,06,55,998.61
2012,01,22,06,56,998.65
2012,01,22,06,57,998.55
2012,01,22,06,58,998.58
2012,01,22,06,59,998.54
2012,01,22,07,00,998.54
2012,01,22,07,01,998.36
2012,01,22,07,02,998.41
2012,01,22,07,03,998.32
2012,01,22,07,04,998.27
2012,01,22,07,05,998.40
2012,01,22,07,06,998.41
2012,01,22,07,07,998.23
2012,01,22,07,08,998.33
2012,01,22,07,09,998.38
2012,01,22,07,10,998.32
2012,01,22,07,11,998.31
2012,01,22,07,12,998.27
2012,01,22,07,13,998.24
2012,01,22,07,14,998.17
2012,01,22,07,15,998.08
2012,01,22,07,16,998.04
2012,01,22,07,17,998.04
2012,01,22,07,18,998.04
2012,01,22,07,19,997.95
2012,01,22,07,20,997.94
2012,01,22,07,21,997.99
2012,01,22,07,22,998.00
2012,01,22,07,23,997.84
2012,01,22,07,24,997.83
2012,01,22,07,25,997.89
2012,01,22,07,26,997.81
2012,01,22,07,27,997.86
2012,01,22,07,28,997.74
2012,01,22,07,29,997.80
2012,01,22,07,30,997.67
2012,01,22,07,31,997.66
2012,01,22,07,32,997.70
2012,01,22,07,33,997.64
2012,01,22,07,34,997.66
2012,01,22,07,35,997.57
2012,01,22,07,36,997.63
2012,01,22,07,37,997.53
2012,01,22,07,38,997.53
2012,01,22,07,39,997.56
2012,01,22,07,40,997.47
2012,01,22,07,41,997.39
2012,01,22,07,42,997.39
2012,01,22,07,43,997.36
2012,01,22,07,44,997.27
2012,01,22,07,45,997.29
2012,01,22,07,46,997.26
2012,01,22,07,47,997.29
2012,01,22,07,48,997.20
2012,01,22,07,49,997.16
2012,01,22,07,50,997.12
2012,01,22,07,51,997.12
2012,01,22,07,52,997.12
2012,01,22,07,53,997.19
2012,01,22,07,54,997.06
2012,01,22,07,55,996.99
2012,01,22,07,56,996.95
2012,01,22,07,57,997.04
2012,01,22,07,58,997.02
2012,01,22,07,59,996.99
2012,01,22,08,00,996.92
2012,01,22,08,01,996.86
2012,01,22,08,02,996.95
2012,01,22,08,03,996.89
2012,01,22,08,04,996.76
2012,01,22,08,05,996.75
2012,01,22,08,06,996.72
2012,01,22,08,07,996.61
2012,01,22,08,08,996.72
2012,01,22,08,09,996.65
2012,01,22,08,10,996.61
2012,01,22,08,11,996.46
2012,01,22,08,12,996.45
2012,01,22,08,13,996.57
2012,01,22,08,14,996.51
2012,01,22,08,15,996.46
2012,01,22,08,16,996.41
2012,01,22,08,17,996.38
2012,01,22,08,18,996.31
2012,01,22,08,19,996.24
2012,01,22,08,20,996.21
2012,01,22,08,21,996.21
2012,01,22,08,22,996.21
2012,01,22,08,23,996.17
2012,01,22,08,24,996.24
2012,01,22,08,25,996.18
2012,01,22,08,26,996.08
2012,01,22,08,27,996.11
2012,01,22,08,28,996.14
2012,01,22,08,29,996.04
2012,01,22,08,30,995.98
2012,01,22,08,31,996.04
2012,01,22,08,32,995.95
2012,01,22,08,33,995.90
2012,01,22,08,34,995.84
2012,01,22,08,35,995.87
2012,01,22,08,36,995.78
2012,01,22,08,37,995.70
2012,01,22,08,38,995.67
2012,01,22,08,39,995.63
2012,01,22,08,40,995.57
2012,01,22,08,41,995.66
2012,01,22,08,42,995.51
2012,01,22,08,43,995.44
2012,01,22,08,44,995.50
2012,01,22,08,45,995.46
2012,01,22,08,46,995.50
2012,01,22,08,47,995.41
2012,01,22,08,48,995.24
2012,01,22,08,49,995.16
2012,01,22,08,50,995.16
2012,01,22,08,51,995.12
2012,01,22,08,52,995.00
2012,01,22,08,53,995.09
2012,01,22,08,54,995.16
2012,01,22,08,55,995.16
2012,01,22,08,56,994.93
2012,01,22,08,57,994.85
2012,01,22,08,58,994.82
2012,01,22,08,59,994.79
2012,01,22,09,00,994.79
2012,01,22,09,01,994.88
2012,01,22,09,02,994.82
2012,01,22,09,03,994.66
2012,01,22,09,04,994.74
2012,01,22,09,05,994.66
2012,01,22,09,06,994.53
2012,01,22,09,07,994.52
2012,01,22,09,08,994.52
2012,01,22,09,09,994.48
2012,01,22,09,10,994.48
2012,01,22,09,11,994.41
2012,01,22,09,12,994.32
2012,01,22,09,13,994.22
2012,01,22,09,14,994.21
2012,01,22,09,15,994.21
2012,01,22,09,16,994.08
2012,01,22,09,17,994.04
2012,01,22,09,18,994.14
2012,01,22,09,19,994.04
2012,01,22,09,20,994.07
2012,01,22,09,21,994.04
2012,01,22,09,22,993.94
2012,01,22,09,23,993.97
2012,01,22,09,24,994.07
2012,01,22,09,25,993.97
2012,01,22,09,26,993.87
2012,01,22,09,27,993.87
2012,01,22,09,28,993.77
2012,01,22,09,29,993.57
2012,01,22,09,30,993.53
2012,01,22,09,31,993.47
2012,01,22,09,32,993.57
2012,01,22,09,33,993.57
2012,01,22,09,34,993.60
2012,01,22,09,35,993.60
2012,01,22,09,36,993.57
2012,01,22,09,37,993.53
2012,01,22,09,38,993.50
2012,01,22,09,39,993.53
2012,01,22,09,40,993.33
2012,01,22,09,41,993.36
2012,01,22,09,42,993.30
2012,01,22,09,43,993.36
2012,01,22,09,44,993.36
2012,01,22,09,45,993.09
2012,01,22,09,46,993.00
2012,01,22,09,47,993.23
2012,01,22,09,48,993.16
2012,01,22,09,49,992.82
2012,01,22,09,50,992.86
2012,01,22,09,51,992.89
2012,01,22,09,52,992.89
2012,01,22,09,53,992.89
2012,01,22,09,54,992.85
2012,01,22,09,55,992.76
2012,01,22,09,56,992.86
2012,01,22,09,57,992.62
2012,01,22,09,58,992.48
2012,01,22,09,59,992.38
2012,01,22,10,00,992.38
2012,01,22,10,01,992.44
2012,01,22,10,02,992.21
2012,01,22,10,03,992.21
2012,01,22,10,04,992.14
2012,01,22,10,05,992.11
2012,01,22,10,06,992.21
2012,01,22,10,07,992.14
2012,01,22,10,08,992.18
2012,01,22,10,09,992.01
2012,01,22,10,10,992.08
2012,01,22,10,11,992.01
2012,01,22,10,12,992.04
2012,01,22,10,13,992.04
2012,01,22,10,14,992.01
2012,01,22,10,15,991.94
2012,01,22,10,16,991.84
2012,01,22,10,17,991.94
2012,01,22,10,18,991.91
2012,01,22,10,19,991.91
2012,01,22,10,20,991.81
2012,01,22,10,21,991.74
2012,01,22,10,22,991.81
2012,01,22,10,23,991.87
2012,01,22,10,24,991.87
2012,01,22,10,25,991.84
2012,01,22,10,26,991.84
2012,01,22,10,27,991.87
2012,01,22,10,28,991.91
2012,01,22,10,29,991.77
2012,01,22,10,30,991.74
2012,01,22,10,31,991.64
2012,01,22,10,32,991.70
2012,01,22,10,33,991.57
2012,01,22,10,34,991.57
2012,01,22,10,35,991.57
2012,01,22,10,36,991.47
2012,01,22,10,37,991.42
2012,01,22,10,38,991.23
2012,01,22,10,39,991.33
2012,01,22,10,40,991.30
2012,01,22,10,41,991.26
2012,01,22,10,42,991.20
2012,01,22,10,43,991.30
2012,01,22,10,44,991.23
2012,01,22,10,45,991.13
2012,01,22,10,46,991.09
2012,01,22,10,47,991.16
2012,01,22,10,48,991.09
2012,01,22,10,49,991.03
2012,01,22,10,50,991.03
2012,01,22,10,51,990.99
2012,01,22,10,52,990.93
2012,01,22,10,53,990.99
2012,01,22,10,54,990.89
2012,01,22,10,55,990.79
2012,01,22,10,56,990.89
2012,01,22,10,57,990.99
2012,01,22,10,58,991.06
2012,01,22,10,59,990.99
2012,01,22,11,00,990.96
2012,01,22,11,01,990.96
2012,01,22,11,02,990.99
2012,01,22,11,03,991.03
2012,01,22,11,04,990.96
2012,01,22,11,05,990.96
2012,01,22,11,06,990.89
2012,01,22,11,07,990.72
2012,01,22,11,08,990.76
2012,01,22,11,09,990.72
2012,01,22,11,10,990.82
2012,01,22,11,11,990.89
2012,01,22,11,12,990.76
2012,01,22,11,13,990.62
2012,01,22,11,14,990.42
2012,01,22,11,15,990.55
2012,01,22,11,16,990.45
2012,01,22,11,17,990.52
2012,01,22,11,18,990.38
2012,01,22,11,19,990.37
2012,01,22,11,20,990.25
2012,01,22,11,21,990.35
2012,01,22,11,22,990.32
2012,01,22,11,23,990.38
2012,01,22,11,24,990.11
2012,01,22,11,25,990.20
2012,01,22,11,26,990.08
2012,01,22,11,27,990.11
2012,01,22,11,28,990.04
2012,01,22,11,29,989.98
2012,01,22,11,30,989.91
2012,01,22,11,31,990.01
2012,01,22,11,32,989.98
2012,01,22,11,33,989.90
2012,01,22,11,34,989.74
2012,01,22,11,35,989.84
2012,01,22,11,36,989.81
2012,01,22,11,37,989.81
2012,01,22,11,38,989.88
2012,01,22,11,39,989.91
2012,01,22,11,40,989.84
2012,01,22,11,41,989.84
2012,01,22,11,42,989.81
2012,01,22,11,43,989.71
2012,01,22,11,44,989.64
2012,01,22,11,45,989.64
2012,01,22,11,46,989.71
2012,01,22,11,47,989.74
2012,01,22,11,48,989.77
2012,01,22,11,49,989.60
2012,01,22,11,50,989.64
2012,01,22,11,51,989.57
2012,01,22,11,52,989.57
2012,01,22,11,53,989.64
2012,01,22,11,54,989.54
2012,01,22,11,55,989.60
2012,01,22,11,56,989.57
2012,01,22,11,57,989.50
2012,01,22,11,58,989.49
2012,01,22,11,59,989.40
2012,01,22,12,00,989.40
2012,01,22,12,01,989.47
2012,01,22,12,02,989.47
2012,01,22,12,03,989.34
2012,01,22,12,04,989.44
2012,01,22,12,05,989.33
2012,01,22,12,06,989.33
2012,01,22,12,07,989.30
2012,01,22,12,08,989.30
2012,01,22,12,09,989.26
2012,01,22,12,10,989.10
2012,01,22,12,11,989.13
2012,01,22,12,12,989.09
2012,01,22,12,13,989.01
2012,01,22,12,14,989.13
2012,01,22,12,15,989.03
2012,01,22,12,16,989.00
2012,01,22,12,17,989.06
2012,01,22,12,18,988.96
2012,01,22,12,19,988.96
2012,01,22,12,20,988.89
2012,01,22,12,21,988.89
2012,01,22,12,22,988.79
2012,01,22,12,23,988.72
2012,01,22,12,24,988.66
2012,01,22,12,25,988.72
2012,01,22,12,26,988.69
2012,01,22,12,27,988.69
2012,01,22,12,28,988.62
2012,01,22,12,29,988.49
2012,01,22,12,30,988.59
2012,01,22,12,31,988.54
2012,01,22,12,32,988.45
2012,01,22,12,33,988.54
2012,01,22,12,34,988.45
2012,01,22,12,35,988.42
2012,01,22,12,36,988.51
2012,01,22,12,37,988.39
2012,01,22,12,38,988.35
2012,01,22,12,39,988.32
2012,01,22,12,40,988.35
2012,01,22,12,41,988.28
2012,01,22,12,42,988.32
2012,01,22,12,43,988.25
2012,01,22,12,44,988.28
2012,01,22,12,45,988.22
2012,01,22,12,46,988.15
2012,01,22,12,47,988.18
2012,01,22,12,48,988.17
2012,01,22,12,49,988.08
2012,01,22,12,50,988.11
2012,01,22,12,51,988.08
2012,01,22,12,52,988.22
2012,01,22,12,53,988.18
2012,01,22,12,54,988.08
2012,01,22,12,55,988.02
2012,01,22,12,56,988.11
2012,01,22,12,57,988.18
2012,01,22,12,58,988.18
2012,01,22,12,59,988.09
2012,01,22,13,00,988.17
2012,01,22,13,01,988.01
2012,01,22,13,02,987.98
2012,01,22,13,03,988.01
2012,01,22,13,04,988.07
2012,01,22,13,05,987.95
2012,01,22,13,06,987.84
2012,01,22,13,07,987.91
2012,01,22,13,08,988.01
2012,01,22,13,09,988.05
2012,01,22,13,10,988.11
2012,01,22,13,11,987.95
2012,01,22,13,12,987.91
2012,01,22,13,13,987.95
2012,01,22,13,14,987.89
2012,01,22,13,15,987.98
2012,01,22,13,16,988.01
2012,01,22,13,17,988.08
2012,01,22,13,18,988.08
2012,01,22,13,19,988.05
2012,01,22,13,20,987.98
2012,01,22,13,21,988.01
2012,01,22,13,22,988.05
2012,01,22,13,23,988.08
2012,01,22,13,24,988.01
2012,01,22,13,25,987.98
2012,01,22,13,26,987.91
2012,01,22,13,27,987.91
2012,01,22,13,28,987.91
2012,01,22,13,29,987.91
2012,01,22,13,30,987.98
2012,01,22,13,31,987.95
2012,01,22,13,32,988.01
2012,01,22,13,33,987.98
2012,01,22,13,34,987.91
2012,01,22,13,35,987.91
2012,01,22,13,36,987.78
2012,01,22,13,37,987.88
2012,01,22,13,38,987.68
2012,01,22,13,39,987.84
2012,01,22,13,40,987.78
2012,01,22,13,41,987.84
2012,01,22,13,42,987.78
2012,01,22,13,43,987.78
2012,01,22,13,44,987.74
2012,01,22,13,45,987.68
2012,01,22,13,46,987.81
2012,01,22,13,47,987.84
2012,01,22,13,48,987.78
2012,01,22,13,49,987.84
2012,01,22,13,50,987.81
2012,01,22,13,51,987.81
2012,01,22,13,52,987.84
2012,01,22,13,53,987.78
2012,01,22,13,54,987.81
2012,01,22,13,55,987.78
2012,01,22,13,56,987.67
2012,01,22,13,57,987.78
2012,01,22,13,58,987.84
2012,01,22,13,59,987.74
2012,01,22,14,00,987.78
2012,01,22,14,01,987.81
2012,01,22,14,02,987.71
2012,01,22,14,03,987.73
2012,01,22,14,04,987.64
2012,01,22,14,05,987.80
2012,01,22,14,06,987.61
2012,01,22,14,07,987.65
2012,01,22,14,08,987.84
2012,01,22,14,09,987.74
2012,01,22,14,10,987.78
2012,01,22,14,11,987.71
2012,01,22,14,12,987.67
2012,01,22,14,13,987.64
2012,01,22,14,14,987.57
2012,01,22,14,15,987.52
2012,01,22,14,16,987.64
2012,01,22,14,17,987.61
2012,01,22,14,18,987.64
2012,01,22,14,19,987.57
2012,01,22,14,20,987.54
2012,01,22,14,21,987.47
2012,01,22,14,22,987.57
2012,01,22,14,23,987.51
2012,01,22,14,24,987.40
2012,01,22,14,25,987.40
2012,01,22,14,26,987.44
2012,01,22,14,27,987.44
2012,01,22,14,28,987.37
2012,01,22,14,29,987.27
2012,01,22,14,30,987.37
2012,01,22,14,31,987.37
2012,01,22,14,32,987.40
2012,01,22,14,33,987.54
2012,01,22,14,34,987.54
2012,01,22,14,35,987.53
2012,01,22,14,36,987.44
2012,01,22,14,37,987.37
2012,01,22,14,38,987.54
2012,01,22,14,39,987.47
2012,01,22,14,40,987.54
2012,01,22,14,41,987.47
2012,01,22,14,42,987.53
2012,01,22,14,43,987.40
2012,01,22,14,44,987.47
2012,01,22,14,45,987.54
2012,01,22,14,46,987.54
2012,01,22,14,47,987.47
2012,01,22,14,48,987.51
2012,01,22,14,49,987.44
2012,01,22,14,50,987.51
2012,01,22,14,51,987.44
2012,01,22,14,52,987.47
2012,01,22,14,53,987.51
2012,01,22,14,54,987.54
2012,01,22,14,55,987.52
2012,01,22,14,56,987.60
2012,01,22,14,57,987.47
2012,01,22,14,58,987.51
2012,01,22,14,59,987.57
2012,01,22,15,00,987.61
2012,01,22,15,01,987.44
2012,01,22,15,02,987.71
2012,01,22,15,03,987.64
2012,01,22,15,04,987.62
2012,01,22,15,05,987.74
2012,01,22,15,06,987.74
2012,01,22,15,07,987.71
2012,01,22,15,08,987.78
2012,01,22,15,09,987.79
2012,01,22,15,10,987.91
2012,01,22,15,11,987.95
2012,01,22,15,12,987.82
2012,01,22,15,13,988.01
2012,01,22,15,14,987.89
2012,01,22,15,15,987.98
2012,01,22,15,16,988.05
2012,01,22,15,17,988.15
2012,01,22,15,18,988.22
2012,01,22,15,19,988.11
2012,01,22,15,20,988.32
2012,01,22,15,21,988.28
2012,01,22,15,22,988.39
2012,01,22,15,23,988.42
2012,01,22,15,24,988.39
2012,01,22,15,25,988.35
2012,01,22,15,26,988.35
2012,01,22,15,27,988.42
2012,01,22,15,28,988.49
2012,01,22,15,29,988.42
2012,01,22,15,30,988.52
2012,01,22,15,31,988.52
2012,01,22,15,32,988.46
2012,01,22,15,33,988.62
2012,01,22,15,34,988.62
2012,01,22,15,35,988.69
2012,01,22,15,36,988.67
2012,01,22,15,37,988.89
2012,01,22,15,38,988.86
2012,01,22,15,39,988.93
2012,01,22,15,40,988.96
2012,01,22,15,41,988.83
2012,01,22,15,42,988.89
2012,01,22,15,43,988.89
2012,01,22,15,44,988.96
2012,01,22,15,45,988.96
2012,01,22,15,46,989.03
2012,01,22,15,47,989.13
2012,01,22,15,48,989.10
2012,01,22,15,49,989.13
2012,01,22,15,50,989.12
2012,01,22,15,51,989.03
2012,01,22,15,52,989.13
2012,01,22,15,53,989.20
2012,01,22,15,54,989.10
2012,01,22,15,55,989.13
2012,01,22,15,56,989.20
2012,01,22,15,57,989.16
2012,01,22,15,58,989.10
2012,01,22,15,59,989.07
2012,01,22,16,00,989.37
2012,01,22,16,01,989.43
2012,01,22,16,02,989.30
2012,01,22,16,03,989.37
2012,01,22,16,04,989.44
2012,01,22,16,05,989.28
2012,01,22,16,06,989.37
2012,01,22,16,07,989.54
2012,01,22,16,08,989.57
2012,01,22,16,09,989.59
2012,01,22,16,10,989.49
2012,01,22,16,11,989.40
2012,01,22,16,12,989.41
2012,01,22,16,13,989.60
2012,01,22,16,14,989.66
2012,01,22,16,18,989.72
2012,01,22,16,19,989.88
2012,01,22,16,20,989.75
2012,01,22,16,21,989.91
2012,01,22,16,22,989.80
2012,01,22,16,23,989.72